User: anonymous   Login
Location: Unspecified
(0.0000°N, 0.0000°E)
Time: 19:17:29
(UTC+00:00)
Language:

CHINASAT 2C - Orbit

View from above orbital plane
View from above orbital plane
View from above satellite
View from above satellite

Ground track
Ground track

The orbit is defined by the following mean orbital elements,

1 41021U          26144.81997093 +.00000000 +00000-0 +00000-0 0 00004
2 41021   0.2148  91.0070 0007559 100.9464  89.0445  1.00267451    08
Epoch (UTC): 24 May 2026 19:40:45
Eccentricity: 0.0007559
inclination: 0.2148°
perigee height: 35756 km
apogee height: 35820 km
right ascension of ascending node: 91.0070°
argument of perigee: 100.9464°
revolutions per day: 1.00267451
mean anomaly at epoch: 89.0445°

The dashed part of the orbit path shows where the satellite is in the earth's shadow,  

DLR